Time,TemperatureF,DewpointF,PressureIn,WindDirection,WindDirectionDegrees,WindSpeedMPH,WindSpeedGustMPH,Humidity,HourlyPrecipIn,Conditions,Clouds,dailyrainin,SoftwareType,DateUTC
2013-08-11 00:00:00,66.9,59.8,29.97,WNW,285,2.0,37.0,78,0.00,,,0.00,Wunderground v.1.15,2013-08-11 04:00:00,
2013-08-11 00:10:00,66.6,59.5,29.97,NW,314,3.0,3.0,78,0.00,,,0.00,Wunderground v.1.15,2013-08-11 04:10:00,
2013-08-11 00:20:00,66.9,59.1,29.97,NW,305,3.0,3.0,76,0.00,,,0.00,Wunderground v.1.15,2013-08-11 04:20:00,
2013-08-11 00:30:00,67.2,59.4,29.97,WNW,283,3.0,37.0,76,0.00,,,0.00,Wunderground v.1.15,2013-08-11 04:30:00,
2013-08-11 00:40:00,67.3,59.1,29.97,WNW,297,3.0,37.0,75,0.00,,,0.00,Wunderground v.1.15,2013-08-11 04:40:00,
2013-08-11 00:50:00,67.3,59.1,29.97,NW,312,3.0,3.0,75,0.00,,,0.00,Wunderground v.1.15,2013-08-11 04:50:00,
2013-08-11 01:00:00,67.0,59.5,29.97,North,5,2.0,2.0,77,0.00,,,0.00,Wunderground v.1.15,2013-08-11 05:00:00,
2013-08-11 01:10:00,66.4,59.3,29.96,NNW,338,1.0,37.0,78,0.00,,,0.00,Wunderground v.1.15,2013-08-11 05:10:00,
2013-08-11 01:20:00,65.9,59.6,29.96,NNW,334,1.0,37.0,80,0.00,,,0.00,Wunderground v.1.15,2013-08-11 05:20:00,
2013-08-11 01:30:00,65.4,59.4,29.97,NW,321,2.0,2.0,81,0.00,,,0.00,Wunderground v.1.15,2013-08-11 05:30:00,
2013-08-11 01:40:00,65.3,59.7,29.97,NW,318,2.0,37.0,82,0.00,,,0.00,Wunderground v.1.15,2013-08-11 05:40:00,
2013-08-11 01:50:00,65.4,59.8,29.97,WNW,299,2.0,37.0,82,0.00,,,0.00,Wunderground v.1.15,2013-08-11 05:50:00,
2013-08-11 02:00:00,65.1,60.1,29.97,NW,314,3.0,37.0,84,0.00,,,0.00,Wunderground v.1.15,2013-08-11 06:00:00,
2013-08-11 02:10:00,64.7,60.1,29.97,NW,315,2.0,37.0,85,0.00,,,0.00,Wunderground v.1.15,2013-08-11 06:10:00,
2013-08-11 02:20:00,64.3,60.0,29.97,NNW,340,3.0,3.0,86,0.00,,,0.00,Wunderground v.1.15,2013-08-11 06:20:00,
2013-08-11 02:30:00,63.9,60.0,29.97,NNW,340,3.0,37.0,87,0.00,,,0.00,Wunderground v.1.15,2013-08-11 06:30:00,
2013-08-11 02:40:00,63.8,59.9,29.98,North,359,3.0,37.0,87,0.00,,,0.00,Wunderground v.1.15,2013-08-11 06:40:00,
2013-08-11 02:50:00,63.9,59.6,29.98,North,358,4.0,37.0,86,0.00,,,0.00,Wunderground v.1.15,2013-08-11 06:50:00,
2013-08-11 03:00:00,64.3,59.4,29.98,North,359,4.0,37.0,84,0.00,,,0.00,Wunderground v.1.15,2013-08-11 07:00:00,
2013-08-11 03:10:00,64.2,59.3,29.98,NE,34,3.0,3.0,84,0.00,,,0.00,Wunderground v.1.15,2013-08-11 07:10:00,
2013-08-11 03:20:00,64.2,59.3,29.98,NNW,347,3.0,37.0,84,0.00,,,0.00,Wunderground v.1.15,2013-08-11 07:20:00,
2013-08-11 03:30:00,64.3,59.4,29.99,NNW,345,3.0,37.0,84,0.00,,,0.00,Wunderground v.1.15,2013-08-11 07:30:00,
2013-08-11 03:40:00,64.3,59.7,29.99,North,8,2.0,37.0,85,0.00,,,0.00,Wunderground v.1.15,2013-08-11 07:40:00,
2013-08-11 03:50:00,65.2,59.9,29.99,North,350,5.0,37.0,83,0.00,,,0.00,Wunderground v.1.15,2013-08-11 07:50:00,
2013-08-11 04:00:00,65.4,59.8,30.00,NNE,16,5.0,37.0,82,0.00,,,0.00,Wunderground v.1.15,2013-08-11 08:00:00,
2013-08-11 04:20:00,65.4,59.4,30.00,North,6,4.0,37.0,81,0.00,,,0.00,Wunderground v.1.15,2013-08-11 08:20:00,
2013-08-11 04:30:00,65.1,59.5,30.00,NNE,15,4.0,37.0,82,0.00,,,0.00,Wunderground v.1.15,2013-08-11 08:30:00,
2013-08-11 04:40:00,65.0,59.4,30.00,NNE,20,4.0,4.0,82,0.00,,,0.00,Wunderground v.1.15,2013-08-11 08:40:00,
2013-08-11 04:50:00,64.7,59.1,30.00,NNE,23,4.0,4.0,82,0.00,,,0.00,Wunderground v.1.15,2013-08-11 08:50:00,
2013-08-11 05:00:00,64.5,58.5,30.01,NNE,22,3.0,37.0,81,0.00,,,0.00,Wunderground v.1.15,2013-08-11 09:00:00,
2013-08-11 05:10:00,64.2,58.2,30.01,NNE,16,2.0,2.0,81,0.00,,,0.00,Wunderground v.1.15,2013-08-11 09:10:00,
2013-08-11 05:20:00,63.5,57.6,30.01,North,8,2.0,37.0,81,0.00,,,0.00,Wunderground v.1.15,2013-08-11 09:20:00,
2013-08-11 05:30:00,63.2,57.6,30.01,North,360,3.0,3.0,82,0.00,,,0.00,Wunderground v.1.15,2013-08-11 09:30:00,
2013-08-11 05:40:00,63.4,57.8,30.01,NNE,15,3.0,37.0,82,0.00,,,0.00,Wunderground v.1.15,2013-08-11 09:40:00,
2013-08-11 06:00:00,64.1,58.1,30.02,NE,39,2.0,37.0,81,0.00,,,0.00,Wunderground v.1.15,2013-08-11 10:00:00,
2013-08-11 06:10:00,64.5,58.2,30.02,NNE,33,3.0,3.0,80,0.00,,,0.00,Wunderground v.1.15,2013-08-11 10:10:00,
2013-08-11 06:20:00,64.9,58.6,30.02,NNE,27,2.0,37.0,80,0.00,,,0.00,Wunderground v.1.15,2013-08-11 10:20:00,
2013-08-11 06:30:00,65.3,58.6,30.02,NNE,25,2.0,37.0,79,0.00,,,0.00,Wunderground v.1.15,2013-08-11 10:30:00,
2013-08-11 06:40:00,65.6,58.9,30.03,North,356,2.0,2.0,79,0.00,,,0.00,Wunderground v.1.15,2013-08-11 10:40:00,
2013-08-11 06:50:00,66.0,59.3,30.03,North,11,2.0,2.0,79,0.00,,,0.00,Wunderground v.1.15,2013-08-11 10:50:00,
2013-08-11 07:00:00,66.4,59.7,30.03,North,352,2.0,37.0,79,0.00,,,0.00,Wunderground v.1.15,2013-08-11 11:00:00,
2013-08-11 07:10:00,66.9,59.8,30.03,NE,36,2.0,2.0,78,0.00,,,0.00,Wunderground v.1.15,2013-08-11 11:10:00,
2013-08-11 07:20:00,67.6,59.8,30.03,North,11,2.0,37.0,76,0.00,,,0.00,Wunderground v.1.15,2013-08-11 11:20:00,
2013-08-11 07:30:00,68.3,60.4,30.03,North,4,2.0,2.0,76,0.00,,,0.00,Wunderground v.1.15,2013-08-11 11:30:00,
2013-08-11 07:40:00,68.7,59.7,30.04,NE,34,2.0,2.0,73,0.00,,,0.00,Wunderground v.1.15,2013-08-11 11:40:00,
2013-08-11 07:50:00,69.1,59.3,30.04,NW,319,3.0,37.0,71,0.00,,,0.00,Wunderground v.1.15,2013-08-11 11:50:00,
2013-08-11 08:00:00,69.0,59.2,30.04,NNE,23,3.0,3.0,71,0.00,,,0.00,Wunderground v.1.15,2013-08-11 12:00:00,
2013-08-11 08:10:00,69.2,58.6,30.04,NNE,22,3.0,37.0,69,0.00,,,0.00,Wunderground v.1.15,2013-08-11 12:10:00,
2013-08-11 08:20:00,70.1,58.6,30.04,North,10,2.0,37.0,67,0.00,,,0.00,Wunderground v.1.15,2013-08-11 12:20:00,
2013-08-11 08:30:00,70.0,58.1,30.04,NNW,348,3.0,37.0,66,0.00,,,0.00,Wunderground v.1.15,2013-08-11 12:30:00,
2013-08-11 08:40:00,70.2,56.6,30.04,North,360,3.0,3.0,62,0.00,,,0.00,Wunderground v.1.15,2013-08-11 12:40:00,
2013-08-11 08:50:00,71.2,57.1,30.04,ENE,60,2.0,2.0,61,0.00,,,0.00,Wunderground v.1.15,2013-08-11 12:50:00,
2013-08-11 09:00:00,71.4,57.2,30.04,South,186,2.0,2.0,61,0.00,,,0.00,Wunderground v.1.15,2013-08-11 13:00:00,
2013-08-11 09:10:00,71.2,56.1,30.04,ENE,67,3.0,3.0,59,0.00,,,0.00,Wunderground v.1.15,2013-08-11 13:10:00,
2013-08-11 09:20:00,71.5,55.9,30.04,NNE,20,2.0,2.0,58,0.00,,,0.00,Wunderground v.1.15,2013-08-11 13:20:00,
2013-08-11 09:30:00,71.8,55.7,30.04,NNE,20,3.0,37.0,57,0.00,,,0.00,Wunderground v.1.15,2013-08-11 13:30:00,
2013-08-11 09:40:00,72.1,55.0,30.04,NNW,348,3.0,37.0,55,0.00,,,0.00,Wunderground v.1.15,2013-08-11 13:40:00,
2013-08-11 09:50:00,71.5,53.5,30.05,North,9,5.0,37.0,53,0.00,,,0.00,Wunderground v.1.15,2013-08-11 13:50:00,
2013-08-11 10:00:00,72.5,53.9,30.05,NW,315,3.0,37.0,52,0.00,,,0.00,Wunderground v.1.15,2013-08-11 14:00:00,
2013-08-11 10:10:00,71.9,53.3,30.05,North,4,5.0,5.0,52,0.00,,,0.00,Wunderground v.1.15,2013-08-11 14:10:00,
2013-08-11 10:30:00,73.3,54.1,30.05,WNW,284,3.0,37.0,51,0.00,,,0.00,Wunderground v.1.15,2013-08-11 14:30:00,
2013-08-11 10:40:00,73.3,54.1,30.05,North,11,4.0,37.0,51,0.00,,,0.00,Wunderground v.1.15,2013-08-11 14:40:00,
2013-08-11 10:50:00,73.2,55.0,30.04,South,176,4.0,4.0,53,0.00,,,0.00,Wunderground v.1.15,2013-08-11 14:50:00,
2013-08-11 11:00:00,73.2,54.5,30.04,NNE,12,4.0,4.0,52,0.00,,,0.00,Wunderground v.1.15,2013-08-11 15:00:00,
2013-08-11 11:10:00,72.8,52.0,30.04,North,11,6.0,6.0,48,0.00,,,0.00,Wunderground v.1.15,2013-08-11 15:10:00,
2013-08-11 11:20:00,73.2,52.9,30.04,NNW,348,4.0,4.0,49,0.00,,,0.00,Wunderground v.1.15,2013-08-11 15:20:00,
2013-08-11 11:30:00,73.9,53.0,30.04,WNW,299,5.0,5.0,48,0.00,,,0.00,Wunderground v.1.15,2013-08-11 15:30:00,
2013-08-11 11:40:00,74.7,53.7,30.04,ENE,58,3.0,3.0,48,0.00,,,0.00,Wunderground v.1.15,2013-08-11 15:40:00,
2013-08-11 11:50:00,75.6,54.5,30.03,SW,216,2.0,37.0,48,0.00,,,0.00,Wunderground v.1.15,2013-08-11 15:50:00,
2013-08-11 12:00:00,75.5,55.6,30.04,NW,316,4.0,4.0,50,0.00,,,0.00,Wunderground v.1.15,2013-08-11 16:00:00,
2013-08-11 12:10:00,75.1,55.7,30.03,North,11,4.0,4.0,51,0.00,,,0.00,Wunderground v.1.15,2013-08-11 16:10:00,
2013-08-11 12:20:00,74.6,53.6,30.03,NNE,20,4.0,37.0,48,0.00,,,0.00,Wunderground v.1.15,2013-08-11 16:20:00,
2013-08-11 12:30:00,73.8,54.0,30.03,South,191,5.0,5.0,50,0.00,,,0.00,Wunderground v.1.15,2013-08-11 16:30:00,
2013-08-11 12:40:00,74.5,52.9,30.03,NNW,340,4.0,4.0,47,0.00,,,0.00,Wunderground v.1.15,2013-08-11 16:40:00,
2013-08-11 12:50:00,75.1,52.9,30.03,WNW,300,3.0,37.0,46,0.00,,,0.00,Wunderground v.1.15,2013-08-11 16:50:00,
2013-08-11 13:00:00,74.7,52.5,30.03,NNW,333,4.0,37.0,46,0.00,,,0.00,Wunderground v.1.15,2013-08-11 17:00:00,
2013-08-11 13:10:00,74.8,51.4,30.03,NNE,26,6.0,6.0,44,0.00,,,0.00,Wunderground v.1.15,2013-08-11 17:10:00,
2013-08-11 13:20:00,75.0,52.8,30.03,NW,321,4.0,4.0,46,0.00,,,0.00,Wunderground v.1.15,2013-08-11 17:20:00,
2013-08-11 13:30:00,75.3,51.9,30.03,NNW,330,5.0,37.0,44,0.00,,,0.00,Wunderground v.1.15,2013-08-11 17:30:00,
2013-08-11 13:40:00,75.2,56.4,30.02,NNE,15,4.0,4.0,52,0.00,,,0.00,Wunderground v.1.15,2013-08-11 17:40:00,
2013-08-11 13:50:00,73.4,56.2,30.02,ENE,60,4.0,4.0,55,0.00,,,0.00,Wunderground v.1.15,2013-08-11 17:50:00,
2013-08-11 14:00:00,74.0,56.8,30.02,SE,134,3.0,37.0,55,0.00,,,0.00,Wunderground v.1.15,2013-08-11 18:00:00,
2013-08-11 14:10:00,73.8,56.1,30.02,SE,135,5.0,5.0,54,0.00,,,0.00,Wunderground v.1.15,2013-08-11 18:10:00,
2013-08-11 14:20:00,73.7,56.5,30.02,ESE,113,5.0,37.0,55,0.00,,,0.00,Wunderground v.1.15,2013-08-11 18:20:00,
2013-08-11 14:30:00,73.5,56.3,30.02,SSE,158,9.0,9.0,55,0.00,,,0.00,Wunderground v.1.15,2013-08-11 18:30:00,
2013-08-11 14:40:00,73.0,55.9,30.02,East,101,7.0,37.0,55,0.00,,,0.00,Wunderground v.1.15,2013-08-11 18:40:00,
2013-08-11 14:50:00,73.1,57.0,30.02,SSE,157,7.0,37.0,57,0.00,,,0.00,Wunderground v.1.15,2013-08-11 18:50:00,
2013-08-11 15:00:00,73.8,57.1,30.02,SE,127,7.0,7.0,56,0.00,,,0.00,Wunderground v.1.15,2013-08-11 19:00:00,
2013-08-11 15:10:00,73.0,55.9,30.01,SSE,163,7.0,37.0,55,0.00,,,0.00,Wunderground v.1.15,2013-08-11 19:10:00,
2013-08-11 15:20:00,72.6,56.5,30.01,SE,136,7.0,7.0,57,0.00,,,0.00,Wunderground v.1.15,2013-08-11 19:20:00,
2013-08-11 15:30:00,73.4,56.7,30.01,SE,136,6.0,6.0,56,0.00,,,0.00,Wunderground v.1.15,2013-08-11 19:30:00,
2013-08-11 15:40:00,73.8,57.6,30.01,SE,141,7.0,37.0,57,0.00,,,0.00,Wunderground v.1.15,2013-08-11 19:40:00,
2013-08-11 15:50:00,72.6,57.4,30.02,SE,140,7.0,7.0,59,0.00,,,0.00,Wunderground v.1.15,2013-08-11 19:50:00,
2013-08-11 16:00:00,73.1,58.4,30.01,SE,141,7.0,37.0,60,0.00,,,0.00,Wunderground v.1.15,2013-08-11 20:00:00,
2013-08-11 16:10:00,73.1,58.8,30.01,SSW,194,7.0,7.0,61,0.00,,,0.00,Wunderground v.1.15,2013-08-11 20:10:00,
2013-08-11 16:20:00,73.4,59.1,30.01,SSE,163,7.0,7.0,61,0.00,,,0.00,Wunderground v.1.15,2013-08-11 20:20:00,
2013-08-11 16:30:00,73.0,59.2,30.01,SSW,197,7.0,37.0,62,0.00,,,0.00,Wunderground v.1.15,2013-08-11 20:30:00,
2013-08-11 16:40:00,72.9,58.7,30.01,SE,127,8.0,8.0,61,0.00,,,0.00,Wunderground v.1.15,2013-08-11 20:40:00,
2013-08-11 16:50:00,72.3,58.1,30.01,SSE,166,8.0,8.0,61,0.00,,,0.00,Wunderground v.1.15,2013-08-11 20:50:00,
2013-08-11 17:00:00,72.8,58.6,30.01,SE,136,7.0,7.0,61,0.00,,,0.00,Wunderground v.1.15,2013-08-11 21:00:00,
2013-08-11 17:10:00,72.5,58.3,30.01,SSE,156,8.0,37.0,61,0.00,,,0.00,Wunderground v.1.15,2013-08-11 21:10:00,
2013-08-11 17:20:00,72.3,57.6,30.01,SSE,163,9.0,37.0,60,0.00,,,0.00,Wunderground v.1.15,2013-08-11 21:20:00,
2013-08-11 17:30:00,72.0,56.9,30.01,ESE,120,8.0,8.0,59,0.00,,,0.00,Wunderground v.1.15,2013-08-11 21:30:00,
2013-08-11 17:40:00,71.9,58.2,30.01,SSW,208,9.0,9.0,62,0.00,,,0.00,Wunderground v.1.15,2013-08-11 21:40:00,
2013-08-11 17:50:00,72.0,59.6,30.00,SSE,163,8.0,37.0,65,0.00,,,0.00,Wunderground v.1.15,2013-08-11 21:50:00,
2013-08-11 18:00:00,71.6,60.1,30.00,SE,132,8.0,8.0,67,0.00,,,0.00,Wunderground v.1.15,2013-08-11 22:00:00,
2013-08-11 18:10:00,71.5,60.8,30.00,SE,142,7.0,37.0,69,0.00,,,0.00,Wunderground v.1.15,2013-08-11 22:10:00,
2013-08-11 18:20:00,71.6,60.9,30.00,South,173,6.0,37.0,69,0.00,,,0.00,Wunderground v.1.15,2013-08-11 22:20:00,
2013-08-11 18:30:00,71.3,61.4,30.00,SSE,150,7.0,37.0,71,0.00,,,0.00,Wunderground v.1.15,2013-08-11 22:30:00,
2013-08-11 18:40:00,71.1,61.2,30.00,SSE,151,7.0,37.0,71,0.00,,,0.00,Wunderground v.1.15,2013-08-11 22:40:00,
2013-08-11 18:50:00,70.6,60.7,30.00,SE,141,9.0,9.0,71,0.00,,,0.00,Wunderground v.1.15,2013-08-11 22:50:00,
2013-08-11 19:00:00,70.5,61.0,30.00,SSE,158,7.0,37.0,72,0.00,,,0.00,Wunderground v.1.15,2013-08-11 23:00:00,
2013-08-11 19:10:00,70.2,61.1,30.00,SSW,194,7.0,7.0,73,0.00,,,0.00,Wunderground v.1.15,2013-08-11 23:10:00,
2013-08-11 19:20:00,70.4,59.3,30.00,SW,229,4.0,37.0,68,0.00,,,0.00,Wunderground v.1.15,2013-08-11 23:20:00,
2013-08-11 19:30:00,70.6,58.7,30.00,WSW,254,6.0,37.0,66,0.00,,,0.00,Wunderground v.1.15,2013-08-11 23:30:00,
2013-08-11 19:40:00,70.3,58.8,30.00,SW,236,6.0,37.0,67,0.00,,,0.00,Wunderground v.1.15,2013-08-11 23:40:00,
2013-08-11 19:50:00,70.0,58.5,30.00,WSW,240,6.0,6.0,67,0.00,,,0.00,Wunderground v.1.15,2013-08-11 23:50:00,
2013-08-11 20:00:00,69.6,58.6,30.01,WSW,255,5.0,37.0,68,0.00,,,0.00,Wunderground v.1.15,2013-08-12 00:00:00,
2013-08-11 20:10:00,69.3,58.3,30.00,SW,229,4.0,37.0,68,0.00,,,0.00,Wunderground v.1.15,2013-08-12 00:10:00,
2013-08-11 20:20:00,69.1,58.1,30.01,SW,226,4.0,37.0,68,0.00,,,0.00,Wunderground v.1.15,2013-08-12 00:20:00,
2013-08-11 20:30:00,69.1,58.5,30.01,SW,229,4.0,37.0,69,0.00,,,0.00,Wunderground v.1.15,2013-08-12 00:30:00,
2013-08-11 20:40:00,69.0,58.0,30.01,SW,236,5.0,5.0,68,0.00,,,0.00,Wunderground v.1.15,2013-08-12 00:40:00,
2013-08-11 20:50:00,68.7,57.7,30.01,SW,225,4.0,37.0,68,0.00,,,0.00,Wunderground v.1.15,2013-08-12 00:50:00,
2013-08-11 21:00:00,68.7,58.1,30.01,West,259,4.0,37.0,69,0.00,,,0.00,Wunderground v.1.15,2013-08-12 01:00:00,
2013-08-11 21:10:00,68.8,58.2,30.01,West,262,4.0,4.0,69,0.00,,,0.00,Wunderground v.1.15,2013-08-12 01:10:00,
2013-08-11 21:20:00,68.6,57.6,30.01,WSW,253,4.0,37.0,68,0.00,,,0.00,Wunderground v.1.15,2013-08-12 01:20:00,
2013-08-11 21:30:00,68.5,57.9,30.02,West,273,4.0,37.0,69,0.00,,,0.00,Wunderground v.1.15,2013-08-12 01:30:00,
2013-08-11 21:40:00,68.4,57.8,30.02,WSW,246,4.0,37.0,69,0.00,,,0.00,Wunderground v.1.15,2013-08-12 01:40:00,
2013-08-11 22:00:00,68.8,58.6,30.03,WSW,253,5.0,37.0,70,0.00,,,0.00,Wunderground v.1.15,2013-08-12 02:00:00,
2013-08-11 22:10:00,68.9,59.1,30.03,WSW,248,5.0,5.0,71,0.00,,,0.00,Wunderground v.1.15,2013-08-12 02:10:00,
2013-08-11 22:20:00,69.1,59.7,30.03,SW,233,7.0,7.0,72,0.00,,,0.00,Wunderground v.1.15,2013-08-12 02:20:00,
2013-08-11 22:30:00,69.1,60.1,30.03,WSW,244,7.0,7.0,73,0.00,,,0.00,Wunderground v.1.15,2013-08-12 02:30:00,
2013-08-11 22:40:00,69.0,60.4,30.03,West,259,7.0,37.0,74,0.00,,,0.00,Wunderground v.1.15,2013-08-12 02:40:00,
2013-08-11 23:00:00,68.8,60.9,30.03,WSW,254,6.0,6.0,76,0.00,,,0.00,Wunderground v.1.15,2013-08-12 03:00:00,
2013-08-11 23:10:00,68.7,61.6,30.03,WSW,250,6.0,6.0,78,0.00,,,0.00,Wunderground v.1.15,2013-08-12 03:10:00,
2013-08-11 23:20:00,68.4,61.3,30.03,WSW,238,5.0,37.0,78,0.00,,,0.00,Wunderground v.1.15,2013-08-12 03:20:00,
2013-08-11 23:30:00,68.3,61.9,30.03,SW,226,5.0,37.0,80,0.00,,,0.00,Wunderground v.1.15,2013-08-12 03:30:00,
2013-08-11 23:40:00,68.2,62.1,30.02,WSW,253,5.0,37.0,81,0.00,,,0.00,Wunderground v.1.15,2013-08-12 03:40:00,
2013-08-11 23:50:00,68.2,62.5,30.03,SW,231,5.0,5.0,82,0.00,,,0.00,Wunderground v.1.15,2013-08-12 03:50:00,